Location: Diguira
(13.1838°N, 4.9109°W)
Time: 17:11:36
(UTC+00:00)

YAOGAN 1 - Pass Details

Date: 18 September 2020
Orbit: 618 x 620 km, 97.9° (Epoch: 24 October)

Event Time Altitude Azimuth Distance (km) Brightness Sun altitude
Rises 19:49:30 0° 186° (S) 2,884 6.0 -23.0°
Reaches altitude 10° 19:51:51 10° 196° (SSW) 1,980 5.2 -23.5°
Maximum altitude 19:55:43 33° 260° (W) 1,051 4.3 -24.5°
Drops below altitude 10° 19:59:36 10° 324° (NW) 1,981 5.7 -25.4°
Sets 20:01:58 0° 334° (NNW) 2,887 6.5 -26.0°
